{"data":{"norad_id":52445,"epoch":"2026-05-24T18:40:37.184160Z","epoch_age_seconds":94139,"freshness":"FRESH","line1":"1 52445U 22048C   26144.77820815  .00092851  00000+0  69945-3 0  9991","line2":"2 52445  97.5622 256.7678 0003802 158.2992 201.8433 15.72226370225840","mean_motion":15.7222637,"eccentricity":0.0003802,"inclination_deg":97.5622,"raan_deg":256.7678,"arg_perigee_deg":158.2992,"mean_anomaly_deg":201.8433,"bstar":0.00069945,"rev_number":22584,"period_min":91.589864378118,"perigee_km":349.97646699813,"apogee_km":355.0944703433,"semimajor_km":6730.6724686707,"source":"CELESTRAK","updated_at":"2026-05-25T13:37:57.737124Z"}}